TimeEDT,TemperatureF,Dew PointF,Humidity,Sea Level PressureIn,VisibilityMPH,Wind Direction,Wind SpeedMPH,Gust SpeedMPH,PrecipitationIn,Events,Conditions,WindDirDegrees,DateUTC
12:15 AM,70.7,64.9,82,29.98,10.0,Calm,Calm,-,N/A,,Mostly Cloudy,0,2013-09-08 04:15:00
12:35 AM,70.0,64.6,83,29.98,10.0,Calm,Calm,-,N/A,,Scattered Clouds,0,2013-09-08 04:35:00
12:55 AM,68.4,64.0,86,29.98,10.0,Calm,Calm,-,N/A,Thunderstorm,Scattered Clouds,0,2013-09-08 04:55:00
1:15 AM,67.8,63.7,87,29.98,10.0,Calm,Calm,-,N/A,,Mostly Cloudy,0,2013-09-08 05:15:00
1:35 AM,68.5,64.4,87,29.99,10.0,Calm,Calm,-,N/A,,Overcast,0,2013-09-08 05:35:00
1:55 AM,69.1,65.1,87,29.99,10.0,WSW,4.6,-,N/A,,Mostly Cloudy,250,2013-09-08 05:55:00
2:15 AM,68.5,64.2,86,29.99,10.0,Calm,Calm,-,N/A,,Scattered Clouds,0,2013-09-08 06:15:00
2:35 AM,66.6,62.6,87,29.99,7.0,Calm,Calm,-,N/A,,Clear,0,2013-09-08 06:35:00
2:55 AM,66.2,62.6,88,29.98,7.0,Calm,Calm,-,N/A,,Mostly Cloudy,0,2013-09-08 06:55:00
3:15 AM,66.2,62.2,87,29.98,7.0,Calm,Calm,-,N/A,,Scattered Clouds,0,2013-09-08 07:15:00
3:35 AM,65.3,61.7,88,29.98,7.0,Calm,Calm,-,N/A,,Scattered Clouds,0,2013-09-08 07:35:00
3:55 AM,66.2,62.6,88,29.98,7.0,Calm,Calm,-,N/A,,Mostly Cloudy,0,2013-09-08 07:55:00
4:15 AM,66.0,62.4,88,29.98,7.0,Calm,Calm,-,N/A,,Scattered Clouds,0,2013-09-08 08:15:00
4:35 AM,65.3,61.7,88,29.97,5.0,Calm,Calm,-,N/A,,Clear,0,2013-09-08 08:35:00
4:55 AM,64.8,61.2,88,29.97,5.0,Calm,Calm,-,N/A,,Clear,0,2013-09-08 08:55:00
5:15 AM,64.6,61.0,88,29.97,5.0,Calm,Calm,-,N/A,,Clear,0,2013-09-08 09:15:00
5:35 AM,64.2,60.8,89,29.97,5.0,Calm,Calm,-,N/A,,Clear,0,2013-09-08 09:35:00
5:55 AM,63.7,60.4,89,29.97,5.0,Calm,Calm,-,N/A,,Scattered Clouds,0,2013-09-08 09:55:00
6:15 AM,64.4,61.2,89,29.97,5.0,Calm,Calm,-,N/A,,Mostly Cloudy,0,2013-09-08 10:15:00
6:35 AM,65.5,62.1,89,29.98,5.0,Calm,Calm,-,N/A,,Mostly Cloudy,0,2013-09-08 10:35:00
6:55 AM,64.8,61.5,89,29.98,5.0,Calm,Calm,-,N/A,,Clear,0,2013-09-08 10:55:00
7:15 AM,64.6,61.3,89,29.99,5.0,Calm,Calm,-,N/A,,Scattered Clouds,0,2013-09-08 11:15:00
7:35 AM,65.5,62.2,89,29.99,4.0,Calm,Calm,-,N/A,,Overcast,0,2013-09-08 11:35:00
7:55 AM,65.8,62.6,89,29.99,5.0,Calm,Calm,-,N/A,,Mostly Cloudy,0,2013-09-08 11:55:00
8:15 AM,67.8,64.4,89,30.00,5.0,Calm,Calm,-,N/A,,Scattered Clouds,0,2013-09-08 12:15:00
8:35 AM,70.3,66.0,86,30.00,7.0,Calm,Calm,-,N/A,,Mostly Cloudy,0,2013-09-08 12:35:00
8:55 AM,72.3,66.4,82,29.99,10.0,Calm,Calm,-,N/A,,Scattered Clouds,0,2013-09-08 12:55:00
9:15 AM,74.3,66.7,77,29.99,10.0,Calm,Calm,-,N/A,,Clear,0,2013-09-08 13:15:00
9:35 AM,76.1,67.1,74,30.00,10.0,Calm,Calm,-,N/A,,Clear,0,2013-09-08 13:35:00
9:55 AM,77.9,66.6,68,30.00,10.0,Calm,Calm,-,N/A,,Scattered Clouds,0,2013-09-08 13:55:00
10:15 AM,79.2,65.8,64,30.00,10.0,NE,3.5,-,N/A,,Clear,50,2013-09-08 14:15:00
10:35 AM,80.4,65.1,59,30.02,10.0,NE,5.8,-,N/A,,Clear,40,2013-09-08 14:35:00
10:55 AM,81.1,65.3,58,30.02,10.0,ENE,4.6,-,N/A,,Clear,60,2013-09-08 14:55:00
11:15 AM,82.4,64.9,55,30.01,10.0,Calm,Calm,-,N/A,,Scattered Clouds,0,2013-09-08 15:15:00
11:35 AM,82.0,64.8,56,30.01,10.0,Calm,Calm,-,N/A,,Scattered Clouds,0,2013-09-08 15:35:00
11:55 AM,83.5,64.0,52,30.01,10.0,ENE,3.5,-,N/A,,Scattered Clouds,70,2013-09-08 15:55:00
12:15 PM,84.2,64.8,52,30.01,10.0,ENE,4.6,-,N/A,,Clear,70,2013-09-08 16:15:00
12:35 PM,84.4,64.0,50,30.01,10.0,Calm,Calm,-,N/A,,Clear,0,2013-09-08 16:35:00
12:55 PM,84.7,64.6,51,30.01,10.0,SSE,3.5,-,N/A,,Scattered Clouds,150,2013-09-08 16:55:00
1:15 PM,85.5,63.7,48,30.00,10.0,East,4.6,-,N/A,,Clear,80,2013-09-08 17:15:00
1:35 PM,86.2,64.0,47,30.00,10.0,Calm,Calm,-,N/A,,Mostly Cloudy,0,2013-09-08 17:35:00
1:55 PM,86.0,63.5,47,30.00,7.0,South,4.6,-,N/A,,Overcast,170,2013-09-08 17:55:00
2:15 PM,85.3,63.7,48,30.00,10.0,Calm,Calm,-,N/A,,Overcast,0,2013-09-08 18:15:00
2:35 PM,86.2,62.6,45,29.99,10.0,Calm,Calm,-,N/A,,Overcast,0,2013-09-08 18:35:00
2:55 PM,86.2,62.6,45,29.99,10.0,Calm,Calm,-,N/A,,Overcast,0,2013-09-08 18:55:00
3:15 PM,86.0,62.8,46,29.99,10.0,Calm,Calm,-,N/A,,Overcast,0,2013-09-08 19:15:00
3:35 PM,86.4,63.7,47,29.98,10.0,Calm,Calm,-,N/A,,Overcast,0,2013-09-08 19:35:00
3:55 PM,86.5,63.7,46,29.98,10.0,Calm,Calm,-,N/A,,Scattered Clouds,0,2013-09-08 19:55:00
4:15 PM,86.4,62.4,45,29.98,10.0,Calm,Calm,-,N/A,,Mostly Cloudy,0,2013-09-08 20:15:00
4:35 PM,86.2,64.0,47,29.97,10.0,Calm,Calm,-,N/A,,Overcast,0,2013-09-08 20:35:00
4:55 PM,85.5,63.3,47,29.96,10.0,Calm,Calm,-,N/A,,Overcast,0,2013-09-08 20:55:00
5:15 PM,87.1,63.1,45,29.96,10.0,NNE,3.5,-,N/A,,Mostly Cloudy,30,2013-09-08 21:15:00
5:35 PM,85.8,63.1,46,29.96,10.0,NE,4.6,-,N/A,,Mostly Cloudy,40,2013-09-08 21:35:00
5:55 PM,85.3,64.0,49,29.95,10.0,NE,3.5,-,N/A,,Mostly Cloudy,50,2013-09-08 21:55:00
6:15 PM,84.6,64.0,50,29.96,10.0,Calm,Calm,-,N/A,,Scattered Clouds,0,2013-09-08 22:15:00
6:35 PM,84.6,64.4,51,29.96,10.0,Calm,Calm,-,N/A,,Mostly Cloudy,0,2013-09-08 22:35:00
6:55 PM,83.8,65.5,54,29.96,10.0,Calm,Calm,-,N/A,,Overcast,0,2013-09-08 22:55:00
7:15 PM,82.8,64.4,54,29.96,10.0,ENE,3.5,-,N/A,,Overcast,70,2013-09-08 23:15:00
7:35 PM,81.1,65.3,58,29.97,10.0,East,10.4,16.1,N/A,,Overcast,80,2013-09-08 23:35:00
7:55 PM,79.9,65.8,62,29.97,10.0,East,5.8,-,N/A,,Overcast,80,2013-09-08 23:55:00
8:15 PM,79.3,65.8,63,29.97,10.0,ENE,5.8,-,N/A,,Overcast,70,2013-09-09 00:15:00
8:35 PM,78.4,65.7,65,29.98,10.0,ENE,5.8,-,N/A,,Overcast,70,2013-09-09 00:35:00
8:55 PM,77.2,65.3,67,29.99,10.0,ENE,5.8,-,N/A,,Mostly Cloudy,70,2013-09-09 00:55:00
9:15 PM,76.1,64.8,68,29.99,10.0,ENE,6.9,-,N/A,,Scattered Clouds,70,2013-09-09 01:15:00
9:35 PM,75.2,64.8,70,30.00,7.0,East,3.5,-,N/A,,Clear,80,2013-09-09 01:35:00
9:55 PM,73.8,64.6,73,30.00,7.0,East,3.5,-,N/A,,Clear,100,2013-09-09 01:55:00
10:15 PM,73.4,64.6,74,30.00,7.0,East,3.5,-,N/A,,Clear,80,2013-09-09 02:15:00
10:35 PM,72.9,64.6,75,30.01,7.0,ESE,5.8,-,N/A,,Clear,110,2013-09-09 02:35:00
10:55 PM,72.9,64.4,75,30.02,10.0,East,3.5,-,N/A,,Clear,80,2013-09-09 02:55:00
11:15 PM,72.7,64.0,74,30.02,10.0,East,6.9,-,N/A,,Clear,100,2013-09-09 03:15:00
11:35 PM,72.3,63.7,74,30.02,10.0,ESE,4.6,-,N/A,,Clear,110,2013-09-09 03:35:00
11:55 PM,71.6,63.7,76,30.02,10.0,ESE,4.6,-,N/A,,Clear,110,2013-09-09 03:55:00